Location: Newark
(35.0167°N, 135.7667°E)
Time: 15:03:11
(UTC+00:00)

OTV 5 (USA 277) - Visible Passes

Search period start: 17 October 2019 00:00
Search period end: 27 October 2019 00:00
Orbit: 310 x 324 km, 54.5° (Epoch: 08 October)

Date Brightness Start Highest point End Pass type
(mag) Time Alt. Az. Time Alt. Az. Time Alt. Az.
18 Oct ? 19:45:51 10° N 19:47:03 12° NE 19:48:15 10° ENE visible
19 Oct ? 19:59:38 12° NNW 20:01:49 29° NE 20:04:15 10° ESE visible
20 Oct ? 20:14:21 16° NW 20:16:24 77° SW 20:19:07 10° SE visible
21 Oct ? 18:58:15 12° E 18:58:15 12° E 18:58:34 10° E visible
21 Oct ? 20:29:11 13° W 20:30:50 20° SW 20:32:56 10° S visible
22 Oct ? 19:13:13 16° ESE 19:13:13 16° ESE 19:13:54 10° ESE visible
26 Oct ? 09:02:29 10° SSE 09:03:49 14° SE 09:03:49 14° SE visible
